[[{"header":{"parameterUnit":"m.s-1","parameterCategory":1,"la1":30.2992,"la2":30.254,"lo1":-89.0895,"lo2":-89.0443,"dy":0.0025,"dx":0.0025,"nx":19,"ny":19,"refTime":"2026-04-16T03:00:00:Z","depth":0,"parameterNumber":2,"parameterNumberName":"U-component_of_WINDS"},"data":[0,0,0,-0.6652,-0.6649,-0.6522,-0.6522,-0.6385,-0.6384,0,0,0,0,0,0,0,0,0,0,0,-0.6705,-0.6704,-0.6652,-0.6649,-0.6522,-0.6522,-0.6385,-0.6384,0,0,0,0,0,0,0,0,0,0,0,-0.6705,-0.6704,-0.6704,-0.6649,-0.6523,-0.6522,-0.6385,-0.6472,0,0,0,0,0,0,0,0,0,0,-0.6591,-0.6654,-0.6704,-0.6704,-0.6648,-0.6523,-0.6522,-0.6475,-0.6466,-0.6453,0,-0.6445,0,-0.6413,-0.6376,-0.6376,0,0,0,-0.6637,-0.6662,-0.6614,-0.6704,-0.6647,-0.6523,-0.6576,-0.647,-0.646,-0.6441,-0.6443,-0.6437,-0.641,-0.6375,-0.6375,-0.6338,-0.6339,0,0,-0.6644,-0.669,-0.6622,-0.6608,-0.663,-0.658,-0.6573,-0.6463,-0.6469,-0.6442,-0.6434,-0.6408,-0.6375,-0.6374,-0.6338,-0.6338,0,0,0,-0.6672,-0.6695,-0.6649,-0.6615,-0.659,-0.6577,-0.6568,-0.6473,-0.6455,-0.6432,-0.6406,-0.6374,-0.6372,-0.6337,-0.6338,-0.6402,0,0,0,-0.6676,-0.6712,-0.6653,-0.668,-0.6593,-0.653,-0.6581,-0.6462,-0.6448,-0.6407,-0.6374,-0.6371,-0.6337,-0.6338,-0.6399,-0.6425,0,0,0,-0.6708,-0.6715,-0.6702,-0.6682,-0.663,-0.6531,-0.6505,-0.6458,-0.6433,-0.6376,-0.6371,-0.6337,-0.6338,-0.6397,-0.642,-0.6429,0,0,0,-0.6754,-0.676,-0.6704,-0.67,-0.6631,-0.6572,-0.6506,-0.6459,-0.6417,-0.6373,-0.6337,-0.6338,-0.6396,-0.6418,-0.6427,-0.6446,-0.6458,0,0,-0.6786,-0.6765,-0.6759,-0.6706,-0.6668,-0.6587,-0.6558,-0.6476,-0.6428,-0.6371,-0.6369,-0.64,-0.642,-0.6429,-0.6507,-0.6517,0,0,0,-0.6785,-0.6782,-0.6762,-0.6724,-0.6662,-0.6612,-0.6529,-0.6499,-0.6448,-0.6408,-0.6404,-0.6414,-0.6418,-0.6425,-0.6433,-0.6433,-0.6343,-0.6343,-0.6343,-0.6896,-0.6836,-0.6822,-0.6747,-0.6712,-0.6628,-0.6594,-0.6538,-0.6486,-0.6487,-0.647,-0.6524,-0.6534,-0.654,-0.6541,-0.6474,-0.6474,-0.6474,-0.6474,-0.6938,-0.6925,-0.6857,-0.6821,-0.6757,-0.6725,-0.6644,-0.6609,-0.657,-0.6532,-0.6532,-0.6496,-0.6553,-0.6551,-0.6478,-0.6478,-0.6477,-0.6477,-0.6477,-0.7005,-0.6988,-0.6952,-0.6893,-0.6854,-0.6777,-0.6744,-0.6686,-0.6632,-0.6632,-0.6608,-0.6607,-0.6599,-0.6624,-0.6624,-0.6625,-0.6625,-0.6625,-0.6625,-0.709,-0.7046,-0.7025,-0.6961,-0.6931,-0.6883,-0.6799,-0.6767,-0.6716,-0.6677,-0.6677,-0.6627,-0.6569,-0.6557,-0.6628,-0.6627,-0.6627,-0.6627,-0.6626,-0.7157,-0.7133,-0.7101,-0.707,-0.699,-0.6957,-0.6884,-0.6824,-0.6789,-0.6774,-0.6724,-0.6691,-0.6664,-0.6657,-0.6647,-0.6736,-0.6736,-0.6736,-0.6736,-0.7214,-0.7195,-0.715,-0.7105,-0.7054,-0.6986,-0.6952,-0.6888,-0.6817,-0.6791,-0.677,-0.675,-0.6746,-0.6722,-0.6714,-0.6703,-0.6805,-0.6805,-0.6805,-0.7253,-0.7227,-0.7209,-0.714,-0.7074,-0.7019,-0.6985,-0.6937,-0.6851,-0.6807,-0.6771,-0.6768,-0.6736,-0.6728,-0.6684,-0.6672,-0.6651,0,0]},{"header":{"parameterUnit":"m.s-1","parameterCategory":1,"la1":30.2992,"la2":30.254,"lo1":-89.0895,"lo2":-89.0443,"dy":0.0025,"dx":0.0025,"nx":19,"ny":19,"refTime":"2026-04-16T03:00:00:Z","depth":0,"parameterNumber":3,"parameterNumberName":"V-component_of_WINDS"},"data":[0,0,0,3.3923,3.3921,3.3839,3.3838,3.3741,3.374,0,0,0,0,0,0,0,0,0,0,0,3.3956,3.3955,3.3923,3.3921,3.3839,3.3838,3.3741,3.374,0,0,0,0,0,0,0,0,0,0,0,3.3956,3.3956,3.3955,3.3921,3.3839,3.3838,3.3741,3.38,0,0,0,0,0,0,0,0,0,0,3.3878,3.3918,3.3956,3.3955,3.392,3.3839,3.3838,3.3802,3.3796,3.3783,0,3.3777,0,3.3757,3.3734,3.3734,0,0,0,3.3914,3.3923,3.3894,3.3955,3.392,3.3839,3.3874,3.3799,3.3792,3.3775,3.3775,3.3771,3.3756,3.3734,3.3733,3.3691,3.3691,0,0,3.3918,3.3944,3.3899,3.3889,3.3907,3.3877,3.3871,3.3794,3.3795,3.3775,3.3769,3.3754,3.3733,3.3733,3.3691,3.3691,0,0,0,3.3936,3.3948,3.392,3.3894,3.3879,3.3874,3.3868,3.3798,3.3787,3.3767,3.3753,3.3733,3.3732,3.3691,3.3691,3.3726,0,0,0,3.3939,3.3958,3.3923,3.3938,3.388,3.3838,3.3875,3.3793,3.3783,3.3753,3.3733,3.3731,3.3691,3.3691,3.3724,3.3737,0,0,0,3.3958,3.3961,3.3952,3.3939,3.3905,3.3839,3.3823,3.379,3.3775,3.3734,3.3731,3.369,3.3691,3.3723,3.3735,3.3734,0,0,0,3.3985,3.3982,3.3953,3.3943,3.3906,3.3862,3.3823,3.3788,3.3757,3.3732,3.3691,3.3691,3.3723,3.3734,3.3733,3.3739,3.3744,0,0,3.3995,3.3984,3.3976,3.3948,3.3916,3.3872,3.3844,3.3789,3.3759,3.3715,3.3713,3.3725,3.3735,3.3734,3.3762,3.3767,0,0,0,3.3987,3.3982,3.3968,3.3942,3.3903,3.3869,3.3817,3.3796,3.3758,3.3743,3.3723,3.3728,3.3727,3.3728,3.3732,3.3729,3.3693,3.3693,3.3693,3.4038,3.4003,3.3988,3.3943,3.3918,3.3865,3.3841,3.3804,3.3773,3.3769,3.3756,3.3778,3.378,3.3783,3.378,3.3756,3.3756,3.3756,3.3756,3.4049,3.4036,3.3999,3.3971,3.3933,3.3907,3.3855,3.3835,3.3804,3.3785,3.3781,3.3764,3.3789,3.3784,3.3758,3.3758,3.3757,3.3757,3.3757,3.4079,3.4067,3.4044,3.4004,3.3976,3.3929,3.3903,3.3868,3.3835,3.3832,3.3814,3.3813,3.3808,3.3826,3.3826,3.3826,3.3826,3.3826,3.3826,3.4118,3.4092,3.4076,3.4035,3.4014,3.3982,3.3929,3.3906,3.3872,3.3848,3.3848,3.3818,3.3798,3.3794,3.3827,3.3827,3.3827,3.3827,3.3826,3.4143,3.4132,3.4107,3.4087,3.4036,3.401,3.3967,3.3924,3.39,3.3888,3.3858,3.385,3.3834,3.3831,3.3828,3.3867,3.3867,3.3867,3.3867,3.4168,3.4158,3.4125,3.4095,3.4061,3.402,3.3989,3.3948,3.3902,3.3885,3.3874,3.3866,3.3864,3.385,3.3846,3.3842,3.3884,3.3884,3.3884,3.4181,3.4167,3.4149,3.4109,3.4066,3.403,3.4,3.3964,3.391,3.3884,3.387,3.3869,3.3856,3.3854,3.3828,3.3823,3.3815,0,0]}]]